#timestamp,LO_Frequency,Hit,StdDev 
1540051215.8,286047002.7,N
1540051235.6,286047002.1,N
1540051255.5,286047003.1,N
1540051275.3,286047003.1,N
1540051295.1,286047005.7,Y
1540051315.9,286047005.9,P
1540051335.7,286047002.9,N
1540051355.5,286047003.0,N
1540051375.4,286047002.9,N
1540051395.2,286047003.0,N
1540051415.1,286047004.7,Y
1540051416.0,286047004.7,P
1540051435.8,286047002.8,P
1540051455.6,286047003.2,P
1540051475.5,286047005.8,Y
1540051495.3,286047002.4,P
1540051515.1,286047001.6,N
1540051535.9,286046999.7,N
1540051555.7,286047002.6,N
1540051575.6,286047004.2,Y
1540051595.4,286047002.3,P
1540051615.2,286047002.4,P
1540051635.1,286047001.9,P
1540051636.0,286047001.9,Y
1540051655.8,286046998.1,P
1540051675.7,286047000.9,N
1540051695.5,286046998.3,N
1540051715.3,286047000.9,N
1540051735.2,286047000.1,N
1540051755.0,286047002.2,N
1540051755.9,286047002.2,N
1540051775.7,286047001.6,N
1540051795.6,286047004.0,N
1540051815.4,286047001.5,N
1540051835.3,286047001.3,N
1540051855.1,286047004.2,N
1540051856.0,286047004.2,N
1540051875.8,286047003.4,N
1540051895.7,286047004.7,N
1540051915.5,286047005.3,N
1540051935.3,286047005.5,N
1540051955.2,286047004.8,N
1540051975.0,286047007.2,Y
1540051975.9,286047007.2,P
1540051995.8,286047005.9,N
1540052015.6,286047004.5,N
1540052035.4,286047007.6,Y
1540052055.3,286047001.7,P
1540052075.1,286047001.7,N
1540052095.9,286047002.2,N
1540052115.7,286047005.9,Y
1540052135.5,286047002.3,P
1540052155.4,286047001.9,P
1540052175.2,286047003.5,P
1540052195.0,286047005.7,Y
1540052195.9,286047005.7,P
1540052215.8,286047002.3,N
1540052235.6,286047001.7,N
1540052255.5,286047003.6,N
1540052275.3,286047003.7,N
1540052295.1,286047003.6,N
1540052315.9,286047005.9,Y
1540052335.7,286047000.2,P
1540052355.5,286047001.9,N
1540052375.4,286047001.3,N
1540052395.2,286047001.3,N
1540052415.1,286047003.1,Y
1540052416.0,286047003.1,P
1540052435.8,286047001.9,N
1540052455.6,286047004.3,P
1540052475.5,286047003.6,Y
1540052495.3,286047002.0,P
1540052515.2,286047004.4,P
1540052535.9,286047004.2,P
1540052555.7,286047005.3,Y
1540052575.6,286047002.2,P
1540052595.4,286046998.6,N
1540052615.2,286047000.3,N
1540052635.1,286046996.6,N
1540052636.0,286046996.6,N
1540052655.8,286046995.6,N
1540052675.7,286046995.4,N
1540052695.5,286046997.3,N
1540052715.3,286046998.0,N
1540052735.2,286046997.7,N
1540052755.0,286046997.1,N
1540052755.9,286046997.1,N
1540052775.7,286046997.0,N
1540052795.6,286046998.9,N
1540052815.4,286046999.0,N
1540052835.3,286047000.8,N
1540052855.1,286047001.1,N
1540052856.0,286047001.1,N
1540052875.8,286047000.6,N
1540052895.7,286046998.5,N
1540052915.5,286046998.6,N
1540052935.3,286046998.1,N
1540052955.2,286046998.1,N
1540052975.0,286047001.2,N
1540052975.9,286047001.2,N
1540052995.8,286046999.8,N
1540053015.6,286047001.8,N
1540053035.4,286047004.3,N
1540053055.3,286047003.2,N
1540053075.1,286047003.7,N
1540053095.8,286047004.3,N
1540053115.7,286047003.5,N
1540053135.5,286047003.1,N
1540053155.4,286047003.2,N
1540053175.2,286047007.5,N
1540053195.0,286047006.1,N
1540053195.9,286047006.1,N
1540053215.8,286047009.2,Y
1540053235.6,286047007.3,P
1540053255.4,286047007.1,N
1540053275.3,286047008.9,P
1540053295.1,286047010.7,Y
1540053315.9,286047004.3,P
1540053335.7,286047003.1,P
1540053355.5,286047004.6,P
1540053375.4,286047006.4,Y
1540053395.2,286047002.8,P
1540053415.0,286047001.7,N
1540053416.0,286047001.7,N
1540053435.8,286047003.9,Y
1540053455.6,286047000.3,P
1540053475.5,286047002.1,N
1540053495.3,286047001.8,N
1540053515.1,286047004.1,Y
1540053535.9,286047002.3,P
1540053555.7,286046999.8,N
1540053575.6,286046999.7,N
1540053595.4,286047001.6,N
1540053615.2,286047003.6,Y
1540053635.1,286047001.5,P
1540053636.0,286047001.5,P
1540053655.8,286047001.6,P
1540053675.6,286047002.5,Y
1540053695.5,286046999.7,P
1540053715.3,286047000.4,N
1540053735.2,286047000.5,N
1540053755.9,286047000.7,N
1540053805.8,286047000.0,E
1540053815.7,286047000.0,N
1540053835.5,286046999.7,P
1540053855.4,286046999.9,N
1540053875.2,286047000.7,Y
1540053895.0,286047000.5,P
1540053895.9,286047000.5,N
1540053915.8,286047000.2,N
1540053935.6,286047002.8,Y
1540053955.5,286047000.0,P
1540053975.3,286047004.4,P
1540053995.1,286047004.2,N
1540054015.9,286047003.5,N
1540054035.7,286047003.3,N
1540054055.5,286047004.9,N
1540054075.4,286047008.0,Y
1540054095.2,286047009.2,P
1540054115.1,286047006.5,N
1540054116.0,286047006.5,N
1540054135.8,286047007.8,Y
1540054155.6,286047004.0,P
1540054175.5,286047005.6,P
1540054195.3,286047006.0,P
1540054215.2,286047004.6,Y
1540054235.9,286047002.7,P
1540054255.7,286047002.8,N
1540054275.6,286047000.5,N
1540054295.4,286047002.8,N
1540054315.2,286047001.4,N
1540054335.1,286047002.2,N
1540054336.0,286047002.2,N
1540054355.8,286047002.1,N
1540054375.7,286047002.2,N
1540054395.5,286047003.1,N
1540054415.3,286047004.1,Y
1540054435.2,286047000.5,P
1540054455.0,286047002.7,N
1540054455.9,286047002.7,N
1540054475.8,286047003.6,Y
1540054495.6,286047002.0,P
1540054515.4,286047004.0,P
1540054535.3,286047004.1,P
1540054555.1,286047004.2,Y
1540054575.9,286046999.9,P
1540054595.7,286047000.4,N
1540054615.5,286047002.7,N
1540054635.4,286047002.6,N
1540054655.2,286047004.3,Y
1540054675.0,286047001.3,P
1540054676.0,286047001.3,P
1540054695.8,286047004.3,P
1540054715.6,286047004.4,Y
1540054735.5,286047000.2,P
1540054755.3,286047002.1,N
1540054775.1,286047004.3,P
1540054795.9,286047004.1,N
